#timestamp,LO_Frequency,Hit,StdDev 
1552838415.1,286046977.1,N
1552838416.0,286046977.1,N
1552838435.8,286046977.0,N
1552838455.7,286046976.2,N
1552838475.5,286046977.0,N
1552838495.4,286046974.9,Y
1552838515.2,286046993.2,P
1552838535.0,286046990.4,N
1552838535.9,286046990.4,N
1552838555.8,286046990.9,N
1552838575.6,286046990.9,N
1552838595.4,286046993.1,N
1552838615.3,286046992.7,N
1552838635.1,286046992.0,N
1552838655.9,286046990.5,Y
1552838675.7,286047000.8,P
1552838695.5,286047001.2,N
1552838715.4,286046999.8,N
1552838735.2,286047001.2,N
1552838755.0,286046998.9,N
1552838755.9,286046998.9,N
1552838775.8,286046996.9,N
1552838795.6,286046997.1,N
1552838815.5,286046997.0,N
1552838835.3,286046997.4,N
1552838855.1,286046995.0,N
1552838875.9,286046997.1,N
1552838895.7,286046996.6,N
1552838915.5,286046997.6,N
1552838935.4,286046999.2,N
1552838955.2,286046998.1,N
1552838975.0,286046998.9,N
1552838976.0,286046998.9,N
1552838995.8,286046999.6,N
1552839015.6,286046997.3,N
1552839035.5,286046996.7,N
1552839055.3,286046997.0,N
1552839075.1,286046996.7,N
1552839095.9,286046999.6,N
1552839115.7,286046997.1,N
1552839135.5,286046999.5,N
1552839155.4,286046997.4,N
1552839175.2,286046996.5,N
1552839195.1,286046999.2,N
1552839196.0,286046999.2,N
1552839215.8,286046997.5,N
1552839235.6,286046999.5,N
1552839255.5,286046999.6,N
1552839275.3,286046995.4,Y
1552839295.2,286046999.2,P
1552839315.9,286046998.7,N
1552839335.7,286046996.9,P
1552839355.6,286046999.6,N
1552839375.4,286046998.2,N
1552839395.2,286047000.8,N
1552839415.1,286046998.6,N
1552839416.0,286046998.6,N
1552839435.8,286046999.0,N
1552839455.7,286046998.9,N
1552839475.5,286046996.5,Y
1552839495.3,286046998.4,P
1552839515.2,286047002.7,P
1552839535.0,286047002.6,N
1552839535.9,286047002.6,N
1552839555.8,286047002.5,N
1552839575.6,286047002.8,N
1552839595.4,286047000.6,N
1552839615.3,286046998.9,N
1552839635.1,286046999.5,N
1552839655.8,286046998.8,N
1552839675.7,286046999.0,N
1552839695.5,286046999.5,N
1552839715.4,286047001.0,N
1552839735.2,286047000.7,N
1552839755.0,286047000.9,N
1552839755.9,286047000.9,N
1552839775.8,286047000.3,N
1552839795.6,286047000.5,N
1552839815.5,286047000.2,N
1552839835.3,286047000.9,N
1552839855.1,286047000.4,N
1552839875.9,286047000.3,N
1552839895.7,286047000.9,N
1552839915.5,286046998.5,N
1552839935.4,286046999.0,N
1552839955.2,286046999.5,N
1552839975.1,286047000.7,N
1552839976.0,286047000.7,N
1552839995.8,286047000.9,N
1552840015.6,286047000.5,N
1552840035.5,286047000.1,N
1552840055.3,286047000.9,N
1552840075.1,286047002.4,N
1552840095.9,286047002.4,N
1552840115.7,286047002.2,N
1552840135.6,286047000.2,N
1552840155.4,286047002.7,N
1552840175.2,286047002.3,N
1552840195.1,286047001.5,N
1552840196.0,286047001.5,N
1552840215.8,286047002.8,N
1552840235.6,286047000.0,N
1552840255.5,286047000.2,N
1552840275.3,286047000.3,N
1552840295.2,286046998.4,N
1552840315.9,286047001.0,N
1552840335.7,286047002.5,N
1552840355.6,286047000.3,N
1552840375.4,286047000.9,N
1552840395.2,286047001.1,N
1552840415.1,286047000.5,N
1552840416.0,286047000.5,N
1552840435.8,286047000.9,N
1552840455.7,286047002.6,N
1552840475.5,286047002.7,N
1552840495.3,286046999.9,N
1552840515.2,286047001.5,N
1552840535.0,286047001.3,N
1552840535.9,286047001.3,N
1552840555.8,286047002.0,N
1552840575.6,286047001.6,N
1552840595.4,286047003.7,Y
1552840615.3,286047001.4,P
1552840635.1,286047003.1,P
1552840655.9,286047005.1,P
1552840675.7,286047004.4,N
1552840695.5,286047001.6,N
1552840715.4,286047000.0,N
1552840735.2,286047000.5,N
1552840755.0,286046998.5,N
1552840755.9,286046998.5,N
1552840775.8,286046998.1,N
1552840795.6,286047000.8,N
1552840815.5,286047000.7,N
1552840835.3,286047001.1,N
1552840855.1,286047000.8,N
1552840875.9,286047001.0,N
1552840895.7,286046998.6,N
1552840915.5,286046998.5,N
1552840935.4,286046998.8,N
1552840955.2,286046998.2,N
1552840975.1,286046998.7,N
1552840976.0,286046998.7,N
1552840995.8,286047000.6,N
1552841015.6,286047000.2,N
1552841035.5,286047001.7,N
1552841055.3,286047001.4,N
1552841075.1,286046999.7,N
1552841095.9,286047000.1,N
1552841115.7,286047000.2,N
1552841135.6,286047000.7,N
1552841155.4,286046998.1,N
1552841175.2,286047000.4,N
1552841195.1,286046998.7,N
1552841196.0,286046998.7,N
1552841215.8,286046999.3,N
1552841235.6,286046999.3,N
1552841255.5,286046998.1,N
1552841275.3,286047000.9,N
1552841295.2,286047000.6,N
1552841315.9,286046998.2,N
1552841335.7,286046998.6,N
1552841355.6,286046999.3,N
1552841375.4,286047000.9,N
1552841395.2,286047002.8,N
1552841415.1,286047000.3,N
1552841416.0,286047000.3,N
1552841435.8,286047000.1,N
1552841455.7,286047002.8,N
1552841475.5,286047000.7,N
1552841495.3,286047000.7,N
1552841515.2,286047001.0,N
1552841535.0,286046998.8,N
1552841535.9,286046998.8,N
1552841555.7,286046996.9,N
1552841575.6,286046998.7,N
1552841595.4,286046999.3,N
1552841615.3,286046998.2,N
1552841635.1,286047000.0,N
1552841636.0,286047000.0,N
1552841655.8,286047000.3,N
1552841675.7,286047000.6,N
1552841695.5,286046998.5,N
1552841715.3,286047000.6,N
1552841735.2,286046999.4,N
1552841755.0,286046997.0,N
1552841755.9,286046997.0,N
1552841775.8,286046998.3,N
1552841795.6,286047001.2,N
1552841815.4,286047000.9,N
1552841835.3,286046998.1,N
1552841855.1,286047001.0,N
1552841875.8,286047002.1,N
1552841895.7,286047001.6,N
1552841915.5,286047002.2,N
1552841935.4,286047002.7,N
1552841955.2,286047001.7,N
1552841975.0,286047002.1,N
1552841975.9,286047002.1,N
1552841995.8,286047001.9,N
